FW1908 Weather Reports


Display with metric or nautical units.
time (UTC)temp
F
wind
direction
speed
MPH
gust
MPH
rain 1hr
in
rain 24hr
in
rain mn
in
humidity
%
barometer
mb
20260901152042 89 119 0.0 2.0 0.00 0.00 0.00 66 1020.4
20260901151535 88 315 1.0 2.0 0.00 0.00 0.00 65 1020.5
20260901151030 88 300 1.0 7.0 0.00 0.00 0.00 66 1020.6
20260901150523 87 320 2.0 7.0 0.00 0.00 0.00 69 1020.6
20260901150017 87 250 1.0 6.0 0.00 0.00 0.00 71 1020.6
20260901145511 86 251 0.0 3.0 0.00 0.00 0.00 73 1020.7
20260901145005 85 292 0.0 3.0 0.00 0.00 0.00 74 1020.6
20260901144458 85 265 0.0 3.0 0.00 0.00 0.00 77 1020.6
20260901144211 84 337 0.0 3.0 0.00 0.00 0.00 77 1020.6
20260901143452 83 319 1.0 4.0 0.00 0.00 0.00 79 1020.7
20260901142938 82 345 1.0 4.0 0.00 0.00 0.00 82 1020.6
20260901142431 81 320 1.0 4.0 0.00 0.00 0.00 86 1020.6
20260901141925 80 316 1.0 3.0 0.00 0.00 0.00 90 1020.6
20260901141419 80 314 1.0 3.0 0.00 0.00 0.00 92 1020.6
20260901141137 79 264 0.0 3.0 0.00 0.00 0.00 94 1020.5
20260901140408 79 308 0.0 3.0 0.00 0.00 0.00 94 1020.4
20260901135900 78 274 0.0 0.0 0.00 0.00 0.00 95 1020.4
20260901135353 78 304 0.0 0.0 0.00 0.00 0.00 95 1020.4
20260901134847 78 304 0.0 0.0 0.00 0.00 0.00 95 1020.4
20260901134341 77 294 0.0 0.0 0.00 0.00 0.00 95 1020.4
20260901133835 77 309 0.0 0.0 0.00 0.00 0.00 95 1020.4
20260901133331 76 155 0.0 0.0 0.00 0.00 0.00 95 1020.4
20260901132831 76 149 0.0 0.0 0.00 0.00 0.00 95 1020.3
20260901132330 76 146 0.0 0.0 0.00 0.00 0.00 95 1020.3
20260901132050 76 109 0.0 0.0 0.00 0.00 0.00 95 1020.3
20260901131553 75 109 0.0 0.0 0.00 0.00 0.00 95 1020.3
20260901130828 75 109 0.0 0.0 0.00 0.00 0.00 95 1020.3
20260901130552 75 109 0.0 0.0 0.00 0.00 0.00 95 1020.3
20260901125826 75 105 0.0 0.0 0.00 0.00 0.00 95 1020.4
20260901125326 74 105 0.0 0.0 0.00 0.00 0.00 95 1020.4
20260901124824 74 104 0.0 0.0 0.00 0.00 0.00 95 1020.4
20260901124322 73 104 0.0 0.0 0.00 0.00 0.00 95 1020.5
20260901123820 73 104 0.0 0.0 0.00 0.00 0.00 95 1020.5
20260901123320 73 104 0.0 0.0 0.00 0.00 0.00 95 1020.4
20260901122816 73 104 0.0 0.0 0.00 0.00 0.00 95 1020.4
20260901122314 73 104 0.0 0.0 0.00 0.00 0.00 95 1020.3
20260901121814 73 104 0.0 0.0 0.00 0.00 0.00 95 1020.3
20260901121532 72 104 0.0 0.0 0.00 0.00 0.00 95 1020.2
20260901121039 72 104 0.0 0.0 0.00 0.00 0.00 95 1020.2
20260901120530 71 104 0.0 0.0 0.00 0.00 0.00 94 1020.2
20260901115808 71 104 0.0 0.0 0.00 0.00 0.00 94 1020.2
20260901115538 71 104 0.0 0.0 0.00 0.00 0.00 94 1020.1
20260901114801 71 104 0.0 0.0 0.00 0.00 0.00 94 1020.1
20260901114254 71 104 0.0 0.0 0.00 0.00 0.00 94 1020.0
20260901114008 71 104 0.0 0.0 0.00 0.00 0.00 94 1019.9
20260901113242 71 104 0.0 0.0 0.00 0.00 0.00 94 1019.8
20260901112735 71 104 0.0 0.0 0.00 0.00 0.00 94 1019.7
20260901112231 71 104 0.0 0.0 0.00 0.00 0.00 94 1019.7
20260901111724 71 104 0.0 0.0 0.00 0.00 0.00 94 1019.7
20260901111219 71 104 0.0 0.0 0.00 0.00 0.00 94 1019.7
20260901110712 71 104 0.0 0.0 0.00 0.00 0.00 94 1019.6
20260901110431 71 104 0.0 0.0 0.00 0.00 0.00 94 1019.4
20260901105700 71 104 0.0 0.0 0.00 0.00 0.00 94 1019.4
20260901105153 71 104 0.0 0.0 0.00 0.00 0.00 93 1019.4
20260901104648 71 104 0.0 0.0 0.00 0.00 0.00 93 1019.4
20260901104405 71 104 0.0 0.0 0.00 0.00 0.00 93 1019.4
20260901103636 71 104 0.0 0.0 0.00 0.00 0.00 93 1019.2
20260901103130 71 104 0.0 0.0 0.00 0.00 0.00 93 1019.1
20260901102623 71 104 0.0 0.0 0.00 0.00 0.00 94 1019.1
20260901102117 72 104 0.0 0.0 0.00 0.00 0.00 93 1019.1
20260901101612 72 104 0.0 0.0 0.00 0.00 0.00 93 1019.1
20260901101105 72 104 0.0 0.0 0.00 0.00 0.00 93 1019.1
20260901100559 72 104 0.0 0.0 0.00 0.00 0.00 93 1019.1
20260901100054 72 104 0.0 0.0 0.00 0.00 0.00 93 1019.0
20260901095548 72 104 0.0 0.0 0.00 0.00 0.00 93 1019.0
20260901095048 72 104 0.0 0.0 0.00 0.00 0.00 93 1019.1
20260901094546 72 104 0.0 0.0 0.00 0.00 0.00 93 1019.1
20260901094315 72 104 0.0 0.0 0.00 0.00 0.00 93 1019.1
20260901093542 72 104 0.0 0.0 0.00 0.00 0.00 93 1019.1
20260901093039 72 104 0.0 0.0 0.00 0.00 0.00 93 1019.2
20260901092804 72 104 0.0 0.0 0.00 0.00 0.00 93 1019.2
20260901092040 72 104 0.0 0.0 0.00 0.00 0.00 93 1019.2
20260901091538 72 104 0.0 0.0 0.00 0.00 0.00 93 1019.4
20260901091036 72 104 0.0 0.0 0.00 0.00 0.00 93 1019.2
20260901090756 72 104 0.0 0.0 0.00 0.00 0.00 93 1019.2
20260901090257 73 104 0.0 0.0 0.00 0.00 0.00 93 1019.2
20260901085536 73 104 0.0 0.0 0.00 0.00 0.00 93 1019.2
20260901085033 73 104 0.0 0.0 0.00 0.00 0.00 93 1019.1
20260901084535 73 104 0.0 0.0 0.00 0.00 0.00 93 1019.2
20260901084303 73 104 0.0 0.0 0.00 0.00 0.00 93 1019.2
20260901083534 73 104 0.0 0.0 0.00 0.00 0.00 93 1019.4
20260901083033 74 104 0.0 0.0 0.00 0.00 0.00 93 1019.4
20260901082533 74 104 0.0 0.0 0.00 0.00 0.00 93 1019.4
20260901082032 74 104 0.0 0.0 0.00 0.00 0.00 93 1019.4
20260901081529 74 104 0.0 0.0 0.00 0.00 0.00 93 1019.4
20260901081029 74 104 0.0 0.0 0.00 0.00 0.00 93 1019.5
20260901080528 74 104 0.0 0.0 0.00 0.00 0.00 93 1019.5
20260901080028 74 104 0.0 0.0 0.00 0.00 0.00 92 1019.5
20260901075526 74 104 0.0 0.0 0.00 0.00 0.00 92 1019.5
20260901075025 74 104 0.0 0.0 0.00 0.00 0.00 91 1019.5
20260901074524 74 104 0.0 0.0 0.00 0.00 0.00 91 1019.5
20260901074022 74 104 0.0 0.0 0.00 0.00 0.00 91 1019.5
20260901073520 74 104 0.0 0.0 0.00 0.00 0.00 91 1019.5
20260901073020 74 104 0.0 0.0 0.00 0.00 0.00 91 1019.5
20260901072520 74 104 0.0 0.0 0.00 0.00 0.00 91 1019.5
20260901072018 74 104 0.0 0.0 0.00 0.00 0.00 90 1019.6
20260901071518 74 104 0.0 0.0 0.00 0.00 0.00 90 1019.7
20260901071016 74 104 0.0 0.0 0.00 0.00 0.00 91 1019.7
20260901070515 74 104 0.0 0.0 0.00 0.00 0.00 90 1019.6
20260901070016 74 104 0.0 0.0 0.00 0.00 0.00 90 1019.8
20260901065515 74 104 0.0 0.0 0.00 0.00 0.00 90 1019.7
20260901065016 74 104 0.0 0.0 0.00 0.00 0.00 90 1019.7
20260901064516 74 104 0.0 0.0 0.00 0.00 0.00 90 1019.8
20260901064016 74 104 0.0 0.0 0.00 0.00 0.00 90 1019.8
20260901063516 75 104 0.0 0.0 0.00 0.00 0.00 90 1019.8
20260901063016 75 104 0.0 0.0 0.00 0.00 0.00 90 1019.8
20260901062512 75 104 0.0 0.0 0.00 0.00 0.00 90 1019.8
20260901062011 75 104 0.0 0.0 0.00 0.00 0.00 90 1019.8
20260901061512 75 104 0.0 0.0 0.00 0.00 0.00 90 1019.8
20260901061011 75 104 0.0 0.0 0.00 0.00 0.00 90 1019.9
20260901060512 75 104 0.0 0.0 0.00 0.00 0.00 89 1019.9
20260901060012 75 104 0.0 0.0 0.00 0.00 0.00 89 1019.9
20260901055511 75 104 0.0 0.0 0.00 0.00 0.00 89 1019.8
20260901055012 75 104 0.0 0.0 0.00 0.00 0.00 89 1019.9
20260901054511 75 104 0.0 0.0 0.00 0.00 0.00 89 1019.9
20260901054012 75 104 0.0 0.0 0.00 0.00 0.00 89 1019.9
20260901053511 76 104 0.0 0.0 0.00 0.00 0.00 89 1020.0
20260901053011 76 104 0.0 0.0 0.00 0.00 0.00 89 1020.0
20260901052511 76 104 0.0 0.0 0.00 0.00 0.00 89 1020.0
20260901052231 76 104 0.0 0.0 0.00 0.00 0.00 89 1020.0
20260901051730 76 104 0.0 0.0 0.00 0.00 0.00 89 1020.0
20260901051229 76 104 0.0 0.0 0.00 0.00 0.00 88 1020.0
20260901050512 76 104 0.0 0.0 0.00 0.00 0.00 88 1020.0
20260901050231 76 104 0.0 0.0 0.00 0.00 0.00 88 1020.0
20260901045733 76 104 0.0 0.0 0.00 0.00 0.00 88 1020.0
20260901045011 76 104 0.0 0.0 0.00 0.00 0.00 88 1020.0
20260901044511 76 104 0.0 0.0 0.00 0.00 0.00 88 1020.0
20260901044011 76 104 0.0 0.0 0.00 0.00 0.00 88 1020.0
20260901043511 76 104 0.0 0.0 0.00 0.00 0.00 88 1020.0
20260901043011 77 104 0.0 0.0 0.00 0.00 0.00 87 1019.9
20260901042509 77 104 0.0 0.0 0.00 0.00 0.00 87 1019.9
20260901042224 77 104 0.0 0.0 0.00 0.00 0.00 87 1019.9
20260901041507 77 104 0.0 0.0 0.00 0.00 0.00 87 1019.9
20260901041004 77 104 0.0 0.0 0.00 0.00 0.00 87 1019.8
20260901040503 77 104 0.0 0.0 0.00 0.00 0.00 86 1019.9
20260901040002 77 104 0.0 0.0 0.00 0.00 0.00 86 1019.9
20260901035457 77 104 0.0 0.0 0.00 0.00 0.00 86 1019.9
20260901034958 77 104 0.0 0.0 0.00 0.00 0.00 86 1019.9
20260901034458 77 104 0.0 0.0 0.00 0.00 0.00 86 1019.9
20260901033956 78 104 0.0 0.0 0.00 0.00 0.00 85 1019.9
20260901033455 78 104 0.0 0.0 0.00 0.00 0.00 85 1019.8
20260901032956 78 104 0.0 0.0 0.00 0.00 0.00 85 1019.9
20260901032456 78 104 0.0 0.0 0.00 0.00 0.00 85 1019.8
20260901031956 78 104 0.0 0.0 0.00 0.00 0.00 85 1019.8
20260901031456 78 104 0.0 1.0 0.00 0.00 0.00 85 1019.8
20260901031220 78 104 0.0 1.0 0.00 0.00 0.00 85 1019.8
20260901030710 78 104 0.0 0.0 0.00 0.00 0.00 85 1019.8
20260901025951 78 104 0.0 1.0 0.00 0.00 0.00 85 1019.9
20260901025451 78 104 0.0 1.0 0.00 0.00 0.00 85 1019.9
20260901024951 79 104 0.0 1.0 0.00 0.00 0.00 85 1020.0
20260901024713 79 104 0.0 1.0 0.00 0.00 0.00 84 1020.0
20260901023952 79 104 0.0 0.0 0.00 0.00 0.00 83 1020.0
20260901023451 79 104 0.0 0.0 0.00 0.00 0.00 83 1020.1
20260901022952 79 104 0.0 0.0 0.00 0.00 0.00 83 1020.0
20260901021947 79 104 0.0 0.0 0.00 0.00 0.00 83 1019.9
20260901020947 80 104 0.0 0.0 0.00 0.00 0.00 83 1019.8
20260901020447 80 104 0.0 0.0 0.00 0.00 0.00 83 1019.8
20260901015948 80 104 0.0 0.0 0.00 0.00 0.00 82 1019.7
20260901015446 80 104 0.0 1.0 0.00 0.00 0.00 82 1019.7
20260901014945 80 104 0.0 1.0 0.00 0.00 0.00 82 1019.6
20260901014443 80 104 0.0 1.0 0.00 0.00 0.00 81 1019.6
20260901013941 80 104 0.0 1.0 0.00 0.00 0.00 81 1019.5
20260901013702 81 104 0.0 0.0 0.00 0.00 0.00 81 1019.5
20260901012938 81 104 0.0 0.0 0.00 0.00 0.00 80 1019.4
20260901012435 81 104 0.0 0.0 0.00 0.00 0.00 80 1019.2
20260901011935 81 104 0.0 0.0 0.00 0.00 0.00 80 1019.1
20260901011428 81 104 0.0 0.0 0.00 0.00 0.00 79 1019.0
20260901010920 82 104 0.0 0.0 0.00 0.00 0.00 79 1019.0
20260901010419 82 104 0.0 0.0 0.00 0.00 0.00 79 1018.9
20260901005917 82 104 0.0 0.0 0.00 0.00 0.00 78 1018.8
20260901005415 82 104 0.0 0.0 0.00 0.00 0.00 78 1018.8
20260901004913 83 104 0.0 0.0 0.00 0.00 0.00 78 1018.7
20260901004413 83 104 0.0 0.0 0.00 0.00 0.00 77 1018.7
20260901003909 83 104 0.0 0.0 0.00 0.00 0.00 77 1018.6
20260901003410 83 104 0.0 0.0 0.00 0.00 0.00 76 1018.6
20260901002909 83 104 0.0 0.0 0.00 0.00 0.00 75 1018.5
20260901002628 84 104 0.0 0.0 0.00 0.00 0.00 75 1018.5
20260901001906 84 104 0.0 0.0 0.00 0.00 0.00 75 1018.4
20260901001406 84 104 0.0 0.0 0.00 0.00 0.00 73 1018.4
20260901001124 85 104 0.0 0.0 0.00 0.00 0.00 72 1018.4
20260901000401 85 104 0.0 0.0 0.00 0.00 0.00 72 1018.4
20260831235859 85 104 0.0 0.0 0.00 0.00 0.00 72 1018.3
20260831235357 85 104 0.0 0.0 0.00 0.00 0.00 71 1018.3
20260831234855 85 104 0.0 0.0 0.00 0.00 0.00 70 1018.3
20260831234354 86 104 0.0 0.0 0.00 0.00 0.00 70 1018.2
20260831233853 86 104 0.0 0.0 0.00 0.00 0.00 69 1018.3
20260831233353 86 104 0.0 0.0 0.00 0.00 0.00 68 1018.3
20260831232851 86 104 0.0 0.0 0.00 0.00 0.00 68 1018.3
20260831232351 87 104 0.0 0.0 0.00 0.00 0.00 67 1018.4
20260831231845 87 104 0.0 0.0 0.00 0.00 0.00 66 1018.5
20260831231338 87 104 0.0 0.0 0.00 0.00 0.00 65 1018.5
20260831230833 87 104 0.0 0.0 0.00 0.00 0.00 65 1018.5
20260831230327 87 104 0.0 0.0 0.00 0.00 0.00 64 1018.5
20260831225826 88 104 0.0 0.0 0.00 0.00 0.00 64 1018.5
20260831225312 88 104 0.0 0.0 0.00 0.00 0.00 64 1018.5
20260831224804 88 104 0.0 0.0 0.00 0.00 0.00 62 1018.5
20260831224521 88 104 0.0 0.0 0.00 0.00 0.00 62 1018.5
20260831223752 88 104 0.0 0.0 0.00 0.00 0.00 62 1018.5
20260831223246 88 104 0.0 0.0 0.00 0.00 0.00 60 1018.6
20260831222740 88 104 0.0 0.0 0.00 0.00 0.00 60 1018.6
20260831222235 88 104 0.0 0.0 0.00 0.00 0.00 61 1018.7
20260831221728 89 104 0.0 0.0 0.00 0.00 0.00 61 1018.7
20260831221229 89 104 0.0 0.0 0.00 0.00 0.00 62 1018.7
20260831220729 89 104 0.0 0.0 0.00 0.00 0.00 60 1018.7
20260831220229 89 104 0.0 0.0 0.00 0.00 0.00 60 1018.8
20260831215953 89 104 0.0 0.0 0.00 0.00 0.00 61 1018.7
20260831215451 89 104 0.0 0.0 0.00 0.00 0.00 58 1018.7
20260831214727 89 104 0.0 1.0 0.00 0.00 0.00 59 1018.7
20260831214226 89 104 1.0 3.0 0.00 0.00 0.00 58 1018.9
20260831213723 89 104 1.0 3.0 0.00 0.00 0.00 60 1018.9
20260831213223 89 104 2.0 4.0 0.00 0.00 0.00 60 1018.9
20260831212723 89 104 2.0 4.0 0.00 0.00 0.00 60 1018.9
20260831212440 90 92 1.0 3.0 0.00 0.00 0.00 60 1018.9
20260831211720 90 37 0.0 1.0 0.00 0.00 0.00 60 1018.9
20260831211221 90 37 0.0 2.0 0.00 0.00 0.00 60 1018.9
20260831210721 91 37 1.0 3.0 0.00 0.00 0.00 60 1019.0
20260831210221 91 37 1.0 3.0 0.00 0.00 0.00 58 1019.1
20260831205721 91 33 0.0 3.0 0.00 0.00 0.00 57 1019.1
20260831205223 91 26 0.0 0.0 0.00 0.00 0.00 59 1019.0
20260831204717 92 26 0.0 0.0 0.00 0.00 0.00 59 1018.9
20260831204210 92 26 0.0 1.0 0.00 0.00 0.00 58 1018.9
20260831203704 93 26 0.0 2.0 0.00 0.00 0.00 54 1018.9
20260831203157 93 26 1.0 2.0 0.00 0.00 0.00 55 1019.0
20260831202652 94 26 1.0 2.0 0.00 0.00 0.00 56 1019.1
20260831202146 94 26 0.0 2.0 0.00 0.00 0.00 54 1019.1
20260831201640 95 26 1.0 3.0 0.00 0.00 0.00 48 1019.2
20260831201134 95 26 1.0 4.0 0.00 0.00 0.00 47 1019.4
20260831200634 95 26 2.0 6.0 0.00 0.00 0.00 49 1019.4
20260831200134 95 5 2.0 6.0 0.00 0.00 0.00 49 1019.5
20260831195633 95 331 2.0 5.0 0.00 0.00 0.00 49 1019.5
20260831195133 95 265 2.0 6.0 0.00 0.00 0.00 50 1019.6
20260831194633 95 245 2.0 6.0 0.00 0.00 0.00 50 1019.6
20260831194131 95 221 2.0 5.0 0.00 0.00 0.00 50 1019.7
20260831193629 95 251 2.0 7.0 0.00 0.00 0.00 51 1019.7
20260831193129 95 231 2.0 7.0 0.00 0.00 0.00 47 1019.7
20260831192629 95 323 3.0 6.0 0.00 0.00 0.00 48 1019.7
20260831192129 95 292 2.0 6.0 0.00 0.00 0.00 48 1019.8
20260831191858 95 298 2.0 5.0 0.00 0.00 0.00 47 1019.8
20260831191129 95 214 2.0 5.0 0.00 0.00 0.00 47 1019.8
20260831190629 95 244 2.0 5.0 0.00 0.00 0.00 49 1019.8
20260831190347 95 297 2.0 5.0 0.00 0.00 0.00 46 1019.9
20260831185629 95 321 2.0 6.0 0.00 0.00 0.00 49 1020.0
20260831185127 94 239 2.0 6.0 0.00 0.00 0.00 47 1020.0
20260831184851 94 229 2.0 5.0 0.00 0.00 0.00 47 1020.1
20260831184125 94 323 2.0 5.0 0.00 0.00 0.00 47 1020.1
20260831183838 94 323 2.0 5.0 0.00 0.00 0.00 48 1020.1
20260831183113 95 292 1.0 4.0 0.00 0.00 0.00 49 1020.2
20260831182607 94 91 2.0 5.0 0.00 0.00 0.00 49 1020.3
20260831182101 94 223 2.0 5.0 0.00 0.00 0.00 53 1020.4
20260831181554 94 248 2.0 5.0 0.00 0.00 0.00 52 1020.4
20260831181050 94 232 1.0 5.0 0.00 0.00 0.00 52 1020.5
20260831180542 94 128 1.0 5.0 0.00 0.00 0.00 52 1020.4
20260831180037 94 128 2.0 5.0 0.00 0.00 0.00 51 1020.6
20260831175533 94 236 1.0 4.0 0.00 0.00 0.00 54 1020.5
20260831175033 93 190 1.0 3.0 0.00 0.00 0.00 54 1020.7
20260831174755 93 194 2.0 4.0 0.00 0.00 0.00 55 1020.7
20260831174033 93 254 2.0 4.0 0.00 0.00 0.00 51 1020.7
20260831173533 93 253 2.0 4.0 0.00 0.00 0.00 49 1020.8
20260831173032 92 276 2.0 4.0 0.00 0.00 0.00 51 1020.8
20260831172033 92 256 1.0 3.0 0.00 0.00 0.00 53 1020.9
20260831171749 92 299 2.0 4.0 0.00 0.00 0.00 57 1020.9
20260831171032 92 332 2.0 4.0 0.00 0.00 0.00 56 1021.0
20260831170532 91 332 1.0 3.0 0.00 0.00 0.00 59 1021.0
20260831170032 91 76 1.0 3.0 0.00 0.00 0.00 60 1021.0
20260831165533 91 76 2.0 4.0 0.00 0.00 0.00 58 1021.0
20260831165033 90 88 2.0 4.0 0.00 0.00 0.00 62 1021.0
20260831164759 90 30 2.0 4.0 0.00 0.00 0.00 61 1021.0
20260831164028 89 113 2.0 4.0 0.00 0.00 0.00 60 1021.0
20260831163527 89 342 1.0 4.0 0.00 0.00 0.00 62 1021.1
20260831163246 89 342 1.0 4.0 0.00 0.00 0.00 67 1021.1
20260831162526 89 31 1.0 3.0 0.00 0.00 0.00 64 1021.2
20260831162026 89 318 1.0 3.0 0.00 0.00 0.00 67 1021.2
20260831161752 89 317 2.0 5.0 0.00 0.00 0.00 66 1021.3
20260831161249 89 317 2.0 5.0 0.00 0.00 0.00 69 1021.4
20260831160524 88 215 2.0 5.0 0.00 0.00 0.00 66 1021.5
20260831155525 88 319 2.0 5.0 0.00 0.00 0.00 67 1021.5
20260831155246 88 267 1.0 4.0 0.00 0.00 0.00 69 1021.6
20260831154020 87 294 2.0 4.0 0.00 0.00 0.00 69 1021.6
20260831153521 87 294 2.0 8.0 0.00 0.00 0.00 71 1021.6
20260831153021 87 182 2.0 8.0 0.00 0.00 0.00 70 1021.6